Radiation Dose at Monitoring Post of Fukushima Daini Nuclear Power Station
Date,Time,MP-1(microSv/h),MP-2(microSv/h),MP-3(microSv/h),MP-4(microSv/h),MP-5(microSv/h),MP-6(microSv/h),MP-7(microSv/h),Wind Direction,Wind Velocity(m/s),Rain
2018/12/15,00:00,0.235,0.188,0.304,0.285,0.279,0.154,0.094,west-northwest,2.3,No
2018/12/15,00:10,0.236,0.189,0.302,0.284,0.277,0.153,0.093,west,3.0,No
2018/12/15,00:20,0.235,0.188,0.304,0.284,0.277,0.154,0.094,west,3.7,No
2018/12/15,00:30,0.234,0.188,0.303,0.285,0.278,0.154,0.095,west,5.0,No
2018/12/15,00:40,0.236,0.188,0.305,0.286,0.278,0.153,0.094,west,4.0,No
2018/12/15,00:50,0.236,0.188,0.304,0.286,0.279,0.153,0.094,west,5.4,No
2018/12/15,01:00,0.235,0.189,0.303,0.285,0.278,0.153,0.094,west,7.0,No
2018/12/15,01:10,0.236,0.188,0.304,0.285,0.277,0.154,0.094,west,7.3,No
2018/12/15,01:20,0.235,0.187,0.304,0.286,0.277,0.153,0.094,west,6.8,No
2018/12/15,01:30,0.235,0.188,0.304,0.286,0.277,0.154,0.094,west,5.8,No
2018/12/15,01:40,0.234,0.187,0.304,0.285,0.278,0.154,0.093,west-northwest,5.1,No
2018/12/15,01:50,0.235,0.188,0.303,0.285,0.278,0.153,0.093,west-northwest,5.3,No
2018/12/15,02:00,0.236,0.188,0.305,0.286,0.277,0.154,0.094,west,6.4,No
2018/12/15,02:10,0.235,0.188,0.303,0.284,0.278,0.153,0.094,west,6.5,No
2018/12/15,02:20,0.235,0.188,0.303,0.284,0.278,0.153,0.094,west-northwest,6.2,No
2018/12/15,02:30,0.235,0.187,0.302,0.285,0.279,0.154,0.095,west-northwest,5.7,No
2018/12/15,02:40,0.234,0.187,0.303,0.284,0.278,0.154,0.093,west-northwest,4.8,No
2018/12/15,02:50,0.235,0.187,0.305,0.285,0.278,0.154,0.094,west-northwest,4.7,No
2018/12/15,03:00,0.234,0.188,0.302,0.284,0.277,0.153,0.094,west-northwest,4.2,No
2018/12/15,03:10,0.236,0.188,0.303,0.285,0.277,0.155,0.094,west-northwest,3.2,No
2018/12/15,03:20,0.235,0.187,0.304,0.285,0.278,0.153,0.093,west,3.9,No
2018/12/15,03:30,0.235,0.187,0.304,0.284,0.278,0.153,0.093,west-northwest,4.7,No
2018/12/15,03:40,0.235,0.188,0.304,0.284,0.277,0.153,0.093,west-northwest,3.9,No
2018/12/15,03:50,0.234,0.188,0.303,0.284,0.278,0.153,0.094,west-northwest,5.0,No
2018/12/15,04:00,0.235,0.189,0.302,0.285,0.277,0.153,0.094,west-northwest,5.3,No
2018/12/15,04:10,0.234,0.187,0.303,0.285,0.277,0.153,0.093,northwest,6.8,No
2018/12/15,04:20,0.235,0.189,0.303,0.283,0.278,0.153,0.094,northwest,5.8,No
2018/12/15,04:30,0.235,0.188,0.303,0.284,0.279,0.153,0.094,northwest,4.7,No
2018/12/15,04:40,0.235,0.188,0.305,0.284,0.277,0.153,0.094,northwest,5.4,No
2018/12/15,04:50,0.234,0.188,0.303,0.285,0.277,0.153,0.094,northwest,5.3,No
2018/12/15,05:00,0.235,0.187,0.305,0.285,0.278,0.154,0.094,northwest,5.2,No
2018/12/15,05:10,0.235,0.188,0.303,0.286,0.279,0.154,0.094,northwest,4.4,No
2018/12/15,05:20,0.235,0.187,0.302,0.284,0.277,0.153,0.093,northwest,4.2,No
2018/12/15,05:30,0.236,0.188,0.303,0.285,0.277,0.154,0.094,west-northwest,4.3,No
2018/12/15,05:40,0.234,0.188,0.304,0.286,0.276,0.154,0.093,northwest,3.5,No
2018/12/15,05:50,0.236,0.188,0.302,0.284,0.277,0.154,0.094,west-northwest,4.1,No
2018/12/15,06:00,0.235,0.188,0.303,0.285,0.278,0.154,0.094,west-northwest,4.3,No
2018/12/15,06:10,0.236,0.188,0.303,0.284,0.278,0.154,0.094,west-northwest,5.1,No
2018/12/15,06:20,0.234,0.188,0.303,0.284,0.277,0.153,0.094,west-northwest,5.1,No
2018/12/15,06:30,0.235,0.189,0.303,0.284,0.277,0.153,0.094,northwest,4.2,No
2018/12/15,06:40,0.235,0.187,0.304,0.285,0.278,0.153,0.095,northwest,4.5,No
2018/12/15,06:50,0.235,0.189,0.304,0.285,0.279,0.154,0.094,northwest,4.8,No
2018/12/15,07:00,0.235,0.187,0.303,0.285,0.278,0.153,0.093,west-northwest,4.0,No
2018/12/15,07:10,0.236,0.188,0.303,0.285,0.278,0.153,0.094,west-northwest,4.4,No
2018/12/15,07:20,0.235,0.188,0.303,0.284,0.277,0.153,0.094,west-northwest,3.9,No
2018/12/15,07:30,0.236,0.188,0.302,0.285,0.278,0.153,0.094,northwest,4.1,No
2018/12/15,07:40,0.235,0.187,0.304,0.285,0.278,0.154,0.094,northwest,4.3,No
2018/12/15,07:50,0.234,0.188,0.304,0.285,0.278,0.153,0.095,northwest,4.3,No
2018/12/15,08:00,0.235,0.188,0.303,0.284,0.276,0.154,0.094,northwest,3.4,No
2018/12/15,08:10,0.234,0.188,0.303,0.284,0.275,0.153,0.094,north-northwest,2.5,No
2018/12/15,08:20,0.234,0.189,0.303,0.285,0.277,0.153,0.094,northwest,1.8,No
2018/12/15,08:30,0.234,0.187,0.304,0.284,0.277,0.154,0.094,northwest,2.6,No
2018/12/15,08:40,0.235,0.187,0.305,0.284,0.277,0.153,0.094,northwest,3.1,No
2018/12/15,08:50,0.234,0.188,0.303,0.284,0.277,0.154,0.094,northwest,2.0,No
2018/12/15,09:00,0.236,0.188,0.302,0.284,0.278,0.153,0.093,northwest,2.8,No
2018/12/15,09:10,0.235,0.186,0.303,0.284,0.278,0.154,0.094,northwest,2.1,No
2018/12/15,09:20,0.234,0.188,0.303,0.285,0.278,0.154,0.093,north-northwest,2.0,No
2018/12/15,09:30,0.236,0.187,0.302,0.284,0.278,0.154,0.094,north-northwest,3.3,No
2018/12/15,09:40,0.236,0.188,0.303,0.285,0.278,0.154,0.094,north,2.7,No
2018/12/15,09:50,0.235,0.187,0.303,0.283,0.277,0.153,0.094,north,2.4,No
2018/12/15,10:00,0.235,0.188,0.304,0.284,0.278,0.154,0.094,north,2.0,No
2018/12/15,10:10,0.234,0.188,0.303,0.284,0.278,0.153,0.093,northwest,2.3,No
2018/12/15,10:20,0.234,0.188,0.303,0.284,0.278,0.154,0.094,northwest,2.3,No
2018/12/15,10:30,0.236,0.188,0.304,0.285,0.279,0.154,0.094,northwest,2.4,No
2018/12/15,10:40,0.235,0.189,0.304,0.287,0.280,0.154,0.095,west-southwest,3.4,No
2018/12/15,10:50,0.235,0.188,0.303,0.285,0.279,0.154,0.095,west,3.2,No
2018/12/15,11:00,0.236,0.188,0.303,0.284,0.278,0.154,0.094,west-northwest,3.2,No
2018/12/15,11:10,0.235,0.189,0.303,0.285,0.279,0.153,0.093,northwest,3.6,No
2018/12/15,11:20,0.236,0.189,0.305,0.285,0.278,0.154,0.094,northwest,4.1,No
2018/12/15,11:30,0.235,0.187,0.303,0.284,0.279,0.154,0.095,northwest,2.8,No
2018/12/15,11:40,0.235,0.189,0.304,0.285,0.278,0.154,0.094,northwest,4.3,No
2018/12/15,11:50,0.235,0.188,0.306,0.286,0.279,0.155,0.095,west-northwest,3.9,No
2018/12/15,12:00,0.235,0.188,0.304,0.285,0.279,0.155,0.094,west-northwest,3.9,No
2018/12/15,12:10,0.236,0.188,0.303,0.286,0.279,0.154,0.094,west-northwest,4.1,No
2018/12/15,12:20,0.235,0.188,0.304,0.285,0.280,0.154,0.094,northwest,4.9,No
2018/12/15,12:30,0.235,0.188,0.304,0.284,0.278,0.155,0.094,west-northwest,5.3,No
2018/12/15,12:40,0.236,0.189,0.304,0.284,0.279,0.153,0.095,west-northwest,5.6,No
2018/12/15,12:50,0.235,0.188,0.304,0.285,0.279,0.155,0.093,west-northwest,5.7,No
2018/12/15,13:00,0.234,0.188,0.304,0.284,0.278,0.154,0.094,west-northwest,6.7,No
2018/12/15,13:10,0.235,0.188,0.302,0.286,0.278,0.154,0.093,northwest,6.0,No
2018/12/15,13:20,0.235,0.188,0.303,0.285,0.280,0.154,0.093,west-northwest,5.2,No
2018/12/15,13:30,0.236,0.188,0.304,0.283,0.279,0.154,0.093,west-northwest,6.3,No
2018/12/15,13:40,0.236,0.188,0.304,0.286,0.278,0.155,0.093,northwest,6.4,No
2018/12/15,13:50,0.235,0.188,0.303,0.283,0.279,0.153,0.094,west-northwest,6.1,No
2018/12/15,14:00,0.234,0.188,0.305,0.285,0.278,0.153,0.094,northwest,4.9,No
2018/12/15,14:10,0.235,0.188,0.305,0.285,0.278,0.154,0.094,west-northwest,3.7,No
2018/12/15,14:20,0.237,0.188,0.306,0.285,0.279,0.154,0.094,west-northwest,5.5,No
2018/12/15,14:30,0.234,0.189,0.305,0.286,0.280,0.154,0.093,west-northwest,5.3,No
2018/12/15,14:40,0.234,0.188,0.305,0.286,0.278,0.154,0.094,northwest,6.3,No
2018/12/15,14:50,0.235,0.188,0.304,0.286,0.279,0.154,0.093,northwest,5.7,No
2018/12/15,15:00,0.235,0.188,0.304,0.284,0.280,0.153,0.093,northwest,5.2,No
2018/12/15,15:10,0.236,0.188,0.303,0.286,0.279,0.154,0.093,northwest,4.8,No
2018/12/15,15:20,0.237,0.189,0.303,0.285,0.278,0.153,0.094,northwest,3.0,No
2018/12/15,15:30,0.235,0.188,0.305,0.285,0.279,0.154,0.093,northwest,3.9,No
2018/12/15,15:40,0.235,0.188,0.304,0.286,0.278,0.154,0.093,west-northwest,5.7,No
2018/12/15,15:50,0.236,0.189,0.304,0.287,0.277,0.153,0.094,west-northwest,5.9,No
2018/12/15,16:00,0.235,0.188,0.305,0.286,0.278,0.153,0.094,northwest,5.4,No
2018/12/15,16:10,0.236,0.188,0.303,0.286,0.279,0.154,0.095,northwest,5.5,No
2018/12/15,16:20,0.236,0.188,0.304,0.285,0.279,0.154,0.094,northwest,4.7,No
2018/12/15,16:30,0.234,0.188,0.303,0.286,0.279,0.153,0.094,northwest,4.4,No
2018/12/15,16:40,0.235,0.189,0.304,0.285,0.279,0.153,0.094,northwest,3.9,No
2018/12/15,16:50,0.235,0.186,0.303,0.285,0.279,0.153,0.094,northwest,3.3,No
2018/12/15,17:00,0.234,0.188,0.303,0.285,0.278,0.154,0.094,west-northwest,2.5,No
2018/12/15,17:10,0.234,0.189,0.304,0.286,0.277,0.154,0.094,northwest,2.3,No
2018/12/15,17:20,0.237,0.188,0.303,0.286,0.279,0.154,0.093,northwest,0.8,No
2018/12/15,17:30,0.236,0.188,0.304,0.285,0.278,0.154,0.093,northwest,2.0,No
2018/12/15,17:40,0.235,0.187,0.305,0.285,0.278,0.153,0.094,north-northwest,2.3,No
2018/12/15,17:50,0.235,0.189,0.303,0.285,0.277,0.153,0.093,northwest,1.8,No
2018/12/15,18:00,0.236,0.188,0.304,0.285,0.278,0.153,0.094,northwest,1.1,No
2018/12/15,18:10,0.236,0.188,0.305,0.286,0.279,0.154,0.094,northwest,2.0,No
2018/12/15,18:20,0.236,0.188,0.304,0.286,0.278,0.153,0.094,northwest,2.3,No
2018/12/15,18:30,0.236,0.188,0.305,0.285,0.279,0.153,0.094,northwest,3.2,No
2018/12/15,18:40,0.236,0.188,0.304,0.287,0.278,0.155,0.093,northwest,2.3,No
2018/12/15,18:50,0.235,0.188,0.305,0.285,0.278,0.154,0.094,northwest,2.1,No
2018/12/15,19:00,0.236,0.188,0.304,0.285,0.279,0.154,0.094,northwest,1.9,No
2018/12/15,19:10,0.236,0.188,0.303,0.285,0.279,0.154,0.094,west-northwest,2.5,No
2018/12/15,19:20,0.235,0.188,0.303,0.286,0.278,0.154,0.093,northwest,2.6,No
2018/12/15,19:30,0.235,0.189,0.304,0.287,0.278,0.154,0.094,west-northwest,1.7,No
2018/12/15,19:40,0.235,0.188,0.304,0.287,0.279,0.155,0.094,west-northwest,1.1,No
2018/12/15,19:50,0.235,0.189,0.305,0.285,0.279,0.154,0.094,west-northwest,1.4,No
2018/12/15,20:00,0.237,0.188,0.305,0.285,0.277,0.153,0.094,west-northwest,1.5,No
2018/12/15,20:10,0.236,0.188,0.306,0.285,0.278,0.154,0.094,northwest,1.0,No
2018/12/15,20:20,0.235,0.189,0.305,0.286,0.279,0.154,0.095,west-northwest,1.4,No
2018/12/15,20:30,0.235,0.189,0.304,0.286,0.278,0.155,0.094,west-northwest,1.0,No
2018/12/15,20:40,0.235,0.188,0.304,0.286,0.279,0.154,0.095,northwest,0.8,No
2018/12/15,20:50,0.236,0.189,0.305,0.286,0.278,0.153,0.094,west-northwest,0.7,No
2018/12/15,21:00,0.235,0.188,0.304,0.285,0.277,0.154,0.094,-,CALM,No
2018/12/15,21:10,0.236,0.189,0.304,0.285,0.279,0.154,0.094,northwest,0.6,No
2018/12/15,21:20,0.235,0.189,0.304,0.287,0.278,0.154,0.094,northwest,1.1,No
2018/12/15,21:30,0.235,0.188,0.305,0.285,0.278,0.154,0.094,west-northwest,1.7,No
2018/12/15,21:40,0.237,0.188,0.304,0.287,0.278,0.154,0.094,north-northwest,0.7,No
2018/12/15,21:50,0.235,0.189,0.304,0.285,0.279,0.155,0.095,north,1.0,No
2018/12/15,22:00,0.235,0.188,0.304,0.287,0.278,0.154,0.094,north,1.1,No
2018/12/15,22:10,0.236,0.188,0.304,0.286,0.279,0.154,0.094,north-northwest,1.1,No
2018/12/15,22:20,0.235,0.188,0.303,0.284,0.278,0.153,0.094,north-northwest,1.1,No
2018/12/15,22:30,0.236,0.188,0.304,0.285,0.279,0.154,0.094,-,CALM,No
2018/12/15,22:40,0.235,0.189,0.304,0.285,0.278,0.154,0.095,south-southeast,1.0,No
2018/12/15,22:50,0.236,0.188,0.305,0.286,0.277,0.154,0.094,south,2.1,No
2018/12/15,23:00,0.236,0.188,0.304,0.287,0.278,0.154,0.094,south,2.8,No
2018/12/15,23:10,0.235,0.190,0.304,0.286,0.278,0.154,0.094,south,3.3,No
2018/12/15,23:20,0.235,0.188,0.304,0.285,0.278,0.154,0.094,south-southwest,2.7,No
2018/12/15,23:30,0.235,0.188,0.305,0.284,0.278,0.154,0.095,south-southwest,2.4,No
2018/12/15,23:40,0.235,0.188,0.304,0.287,0.279,0.154,0.095,south-southwest,2.8,No
2018/12/15,23:50,0.236,0.189,0.304,0.287,0.279,0.154,0.093,south-southwest,2.3,No
